Home > Weather > Tunis > Past weeks

Flag for Tunisia Past Weather in Tunis, Tunisia — Yesterday and Last 2 Weeks

Now
82 °F

Passing clouds.


Feels Like: 84 °F
Forecast: 73 / 89 °F
Wind: 13 mph from Northwest

Location: Tunis-Carthage

Current Time: Jul 24, 2016 at 7:49:43 PM

Latest Report: Jul 24, 2016 at 7:00 PM


Visibility: N/A

Pressure: 29.98 "Hg

Humidity: 55%

Dew Point: 64 °F

Location of TunisLocation

Past Weather in Tunis — Graph

°F

Tunis Temperature Yesterday

Maximum temperature yesterday: 93 °F (at 2:00 PM)
Minimum temperature yesterday: 77 °F (at 5:00 AM)
Average temperature yesterday: 85 °F

High & Low Weather Summary for the Past Weeks

 TemperatureHumidityPressure
High104 °F (Jul 22, 2:30 PM)94% (Jul 13, 1:30 AM)30.15 "Hg (Jul 13, 1:30 AM)
Low61 °F (Jul 17, 5:00 AM)15% (Jul 22, 2:30 PM)29.83 "Hg (Jul 11, 3:30 PM)
Average81 °F52%30.00 "Hg
* Reported Jul 9 6:00 PM — Jul 24 6:30 PM, Tunis, Weather by CustomWeather, © 2016

Note: Actual official high and low records may vary slightly from our data, if they occured in-between our weather recording intervals... More about our weather records

Advertising

Tunis Weather History for the Previous 24 Hours

Scroll right to see more
 ConditionsComfort  
Time TempWeatherWind HumidityBarometerVisibility
6:30 PM
Sun, Jul 24
84 °FPassing clouds.14 mph51%29.98 "HgN/A
6:00 PM86 °FPassing clouds.14 mph43%29.98 "HgN/A
5:30 PM86 °FScattered clouds.13 mph43%29.98 "HgN/A
5:00 PM88 °FScattered clouds.13 mph40%29.98 "HgN/A
4:00 PM88 °FScattered clouds.15 mph43%29.98 "HgN/A
3:30 PM86 °FScattered clouds.15 mph49%29.98 "HgN/A
3:00 PM88 °FScattered clouds.14 mph46%29.98 "HgN/A
2:30 PM86 °FScattered clouds.14 mph55%30.01 "HgN/A
2:00 PM86 °FScattered clouds.14 mph55%30.01 "HgN/A
1:00 PM88 °FPassing clouds.14 mph52%30.01 "HgN/A
12:30 PM88 °FPassing clouds.15 mph52%30.01 "HgN/A
12:00 PM90 °FPassing clouds.6 mph43%30.01 "HgN/A
11:30 AM88 °FPassing clouds.8 mph43%30.01 "HgN/A
11:00 AM88 °FPassing clouds.8 mph43%30.01 "HgN/A
10:30 AM86 °FScattered clouds.9 mph49%30.01 "HgN/A
10:00 AM84 °FScattered clouds.10 mph55%30.01 "HgN/A
9:30 AM82 °FScattered clouds.10 mph58%30.01 "HgN/A
9:00 AM81 °FScattered clouds.7 mph66%30.01 "HgN/A
8:30 AM79 °FScattered clouds.10 mph65%30.01 "HgN/A
8:00 AM79 °FScattered clouds.12 mph70%30.01 "HgN/A
7:30 AM77 °FPassing clouds.10 mph74%30.01 "HgN/A
7:00 AM75 °FPassing clouds.10 mph78%30.01 "HgN/A
6:30 AM75 °FPassing clouds.6 mph78%30.01 "HgN/A
6:00 AM73 °FPassing clouds.8 mph78%30.01 "HgN/A
5:00 AM77 °FPassing clouds.7 mph61%29.98 "HgN/A
4:30 AM77 °FPassing clouds.6 mph57%29.98 "HgN/A
4:00 AM77 °FPassing clouds.8 mph61%29.95 "HgN/A
3:30 AM77 °FPassing clouds.5 mph61%29.98 "HgN/A
3:00 AM77 °FPassing clouds.7 mph65%29.98 "HgN/A
2:30 AM77 °FPassing clouds.7 mph65%30.04 "HgN/A
2:00 AM77 °FPassing clouds.9 mph69%30.04 "HgN/A
1:30 AM77 °FPassing clouds.6 mph65%30.01 "Hg5 mi
1:00 AM77 °FLight rain. Passing clouds.5 mph65%30.01 "Hg5 mi
12:30 AM77 °FPassing clouds.10 mph74%30.04 "Hg5 mi
12:00 AM77 °FThunderstorms. Passing clouds.16 mph74%30.04 "Hg5 mi
11:30 PM
Sat, Jul 23
77 °FPassing clouds.12 mph74%30.04 "HgN/A
11:00 PM77 °FPassing clouds.10 mph74%30.04 "HgN/A
10:30 PM79 °FPassing clouds.9 mph65%30.01 "HgN/A
10:00 PM79 °FPassing clouds.8 mph70%30.01 "HgN/A
9:30 PM79 °FPassing clouds.5 mph70%30.01 "HgN/A
9:00 PM79 °FPassing clouds.6 mph74%30.01 "HgN/A
8:30 PM79 °FPassing clouds.10 mph74%30.01 "HgN/A
8:00 PM79 °FPassing clouds.12 mph74%29.98 "HgN/A
7:30 PM81 °FPassing clouds.10 mph74%29.98 "HgN/A
7:00 PM81 °FPassing clouds.12 mph74%29.98 "HgN/A
Weather by CustomWeather, © 2016

See weather overviewHow to use our weather pages